Estherville, IA

1:18 AM CDT on April 21, 2018 (GMT -0500)
Estherville Municipal

Weather History for KEST - February, 2014

Change the Weather History Date:

Sunday, February 2, 2014

  Actual Average Record
Temperature  
Mean Temperature 1 °F 17 °F  
Max Temperature 15 °F 26 °F 53 °F (1987)
Min Temperature -13 °F 8 °F -20 °F (1978)
Degree Days  
Heating Degree Days 64 48  
Month to date heating degree days 121 96  
Since 1 July heating degree days 5024 4767  
Cooling Degree Days 0 0  
Month to date cooling degree days 0 0  
Year to date cooling degree days 0 0  
Moisture  
Dew Point -4 °F    
Average Humidity 76    
Maximum Humidity 90    
Minimum Humidity 61    
Precipitation  
Precipitation 0.00 in 0.01 in 0.50 in (1961)
Month to date precipitation T 0.02  
Sea Level Pressure  
Sea Level Pressure 30.33 in    
Wind  
Wind Speed 8 mph (SW)    
Max Wind Speed 16 mph    
Max Gust Speed 19 mph    
Visibility 10 miles    
Events      
T = Trace of Precipitation, MM = Missing Value Source: NWS Daily Summary

Daily Weather History Graph

Daily Weather History Graph

Search for Another Location

Airport or City:

Astronomy

Feb. 02, 2014 Rise Set
Actual Time 7:33 AM CST 5:32 PM CST
Civil Twilight 7:03 AM CST 6:02 PM CST
Nautical Twilight 6:29 AM CST 6:36 PM CST
Astronomical Twilight 5:56 AM CST 7:10 PM CST
Moon 8:53 AM CST (2/2) 9:25 PM CST (2/2)
Length of Visible Light 10h 58m
Length of Day
9h 58m
Waxing Crescent, 11% of the Moon is Illuminated
Feb 2
Waxing Crescent
Feb 6
First Quarter
Feb 14
Full
Feb 22
Last Quarter
Mar 1
New

Hourly Weather History & Observations

Time (CST) Temp. Windchill Dew Point Humidity Pressure Visibility Wind Dir Wind Speed Gust Speed Precip Events Conditions
12:52 AM -4.0 °F -14.6 °F -7.1 °F 87% 30.32 in 10.0 mi WNW 4.6 mph - N/A   Clear
1:52 AM -5.1 °F -13.6 °F -9.0 °F 83% 30.32 in 10.0 mi West 3.5 mph - N/A   Clear
2:52 AM -6.0 °F - -9.9 °F 83% 30.33 in 10.0 mi Calm Calm - N/A   Clear
3:52 AM -6.0 °F -16.9 °F -11.0 °F 79% 30.34 in 10.0 mi SW 4.6 mph - N/A   Clear
4:52 AM -9.0 °F -23.8 °F -13.0 °F 83% 30.36 in 10.0 mi West 6.9 mph - N/A   Clear
5:52 AM -11.0 °F -28.8 °F -15.0 °F 83% 30.36 in 10.0 mi WSW 9.2 mph - N/A   Clear
6:52 AM -9.9 °F -24.9 °F -15.0 °F 78% 30.36 in 10.0 mi West 6.9 mph - N/A   Clear
7:52 AM -9.0 °F -22.3 °F -13.0 °F 83% 30.37 in 10.0 mi SW 5.8 mph - N/A   Clear
8:52 AM -7.1 °F -19.9 °F -9.0 °F 91% 30.38 in 10.0 mi SW 5.8 mph - N/A   Clear
9:52 AM 1.9 °F -9.2 °F -2.0 °F 83% 30.38 in 10.0 mi WSW 5.8 mph - N/A   Clear
10:52 AM 5.0 °F -5.6 °F 1.0 °F 84% 30.37 in 10.0 mi SSW 5.8 mph - N/A   Clear
11:52 AM 9.0 °F -3.2 °F 3.0 °F 77% 30.37 in 10.0 mi SSW 8.1 mph - N/A   Clear
12:52 PM 10.9 °F -4.1 °F 3.0 °F 70% 30.35 in 10.0 mi WSW 12.7 mph - N/A   Clear
1:52 PM 12.9 °F -2.2 °F 3.9 °F 67% 30.34 in 10.0 mi SW 13.8 mph - N/A   Clear
2:52 PM 14.0 °F 2.0 °F 3.9 °F 64% 30.32 in 10.0 mi SW 9.2 mph - N/A   Clear
3:52 PM 15.1 °F 3.3 °F 5.0 °F 64% 30.31 in 10.0 mi WSW 9.2 mph - N/A   Clear
4:52 PM 12.0 °F 2.7 °F 3.9 °F 70% 30.31 in 10.0 mi South 5.8 mph - N/A   Clear
5:52 PM 5.0 °F -6.9 °F -0.9 °F 76% 30.31 in 10.0 mi SSE 6.9 mph - N/A   Clear
6:52 PM 1.9 °F -11.8 °F -2.9 °F 80% 30.30 in 10.0 mi SE 8.1 mph - N/A   Clear
7:52 PM 1.0 °F -11.7 °F -2.9 °F 83% 30.29 in 10.0 mi South 6.9 mph - N/A   Clear
8:52 PM 6.1 °F -8.7 °F 1.0 °F 80% 30.27 in 10.0 mi South 10.4 mph - N/A   Clear
9:52 PM 1.9 °F -12.9 °F -2.0 °F 83% 30.27 in 10.0 mi South 9.2 mph - N/A   Clear
10:52 PM 1.0 °F -14.9 °F -2.0 °F 87% 30.26 in 10.0 mi South 10.4 mph - N/A   Clear
11:52 PM -0.0 °F -16.3 °F -2.9 °F 88% 30.25 in 10.0 mi South 10.4 mph - N/A   Clear